{"data":{"norad_id":58921,"intl_designator":"2024-024E","name":"NEXSAT-1","alt_names":[],"object_type":"PAYLOAD","status":"ACTIVE","operator":null,"country":"EGYP","launch_date":"2024-02-03","launch_site_code":"SCSLA","launch_vehicle":null,"mission":null,"orbit_class":"UNKNOWN","rcs_meters":null,"size_class":null,"mass_kg":null,"dimensions":null,"purposes":[],"wikipedia_slug":null,"has_3d_model":false,"image_url":null,"decayed_at":null,"tle_current":{"epoch":"2026-05-25T04:50:59.717184Z","epoch_age_seconds":51592,"freshness":"FRESH","line1":"1 58921U 24024E   26145.20208006  .00006720  00000+0  21164-3 0  9994","line2":"2 58921  97.3054 219.5242 0008087 185.9973 174.1174 15.33215352128371","mean_motion":15.33215352,"eccentricity":0.0008087,"inclination_deg":97.3054,"raan_deg":219.5242,"arg_perigee_deg":185.9973,"mean_anomaly_deg":174.1174,"bstar":0.00021164,"rev_number":12837,"period_min":93.920270112192,"perigee_km":460.69149385108,"apogee_km":471.76156742553,"semimajor_km":6844.3635306383,"source":"CELESTRAK","updated_at":"2026-05-25T13:38:01.079076Z"}}}